Terminal Aerodrome Forecast
Issued by NWS Dodge City, KS

Home | Current Version | Previous Version | Text Only | Print | Product List | Glossary Off
Versions: 1 2 3 4 5 6 7 8 9 10 11 12 13 14 15 16 17 18 19 20 21 22 23 24 25 26 27 28 29 30 31 32 33 34 35 36 37 38 39 40 41 42 43 44 45 46 47 48 49 50

000
FTUS43 KDDC 271137
TAFDDC
TAF
KDDC 271137Z 2712/2812 13009KT 3SM -SN OVC030
      TEMPO 2712/2714 2SM -SN OVC025
     FM271700 15014KT P6SM -SN OVC022
     FM280100 15011KT P6SM OVC016=

USA.gov is the U.S. government's official web portal to all federal, state and local government web resources and services.